AMAZONAS 4A

Last updated on Thu Nov 21 2024 00:02:42 GMT+0000 (Coordinated Universal Time)

1 39616U 14011A 24324.99468521 -.00000251 00000+0 00000+0 0 9998 2 39616 0.0540 198.5589 0005129 42.4344 102.6256 1.00271718 38942
UTC large
Height (km)
Speed (km/s)
/
Latitude / Longitude
Inclination (degrees)
Orbital Period (minutes)
Azimuth
Elevation
Range (km)
Doppler Factor

Next 0 passes for location: London (51.5072 / 0.1276)

Sorry there are no passes over London.